Olympia, WA

2:31 PM PST on February 07, 2016 (GMT -0800)
Olympia

Weather History for KOLM - April, 2014

Change the Weather History Date:

Saturday, April 5, 2014

  Actual Average Record
Temperature  
Mean Temperature 50 °F 47 °F  
Max Temperature 55 °F 57 °F 76 °F (1977)
Min Temperature 44 °F 37 °F 26 °F (1961)
Degree Days  
Heating Degree Days 15 18  
Month to date heating degree days 87 91  
Since 1 July heating degree days 4447 4449  
Cooling Degree Days 0 0  
Month to date cooling degree days 0 0  
Year to date cooling degree days 0 0  
Moisture  
Dew Point 46 °F    
Average Humidity 86    
Maximum Humidity 100    
Minimum Humidity 71    
Precipitation  
Precipitation 0.30 in 0.14 in 1.06 in (2013)
Month to date precipitation 0.63 0.72  
Year to date precipitation 22.84 19.12  
Sea Level Pressure  
Sea Level Pressure 30.02 in    
Wind  
Wind Speed 8 mph (SSW)    
Max Wind Speed 16 mph    
Max Gust Speed 21 mph    
Visibility 8 miles    
Events Rain    
T = Trace of Precipitation, MM = Missing Value Source: NWS Daily Summary

Daily Weather History Graph

Daily Weather History Graph

Search for Another Location

Airport or City:

Trip Planner

Search our weather history database for the weather conditions in past years. The results will help you decide how hot, cold, wet, or windy it might be!

Date:

Astronomy

Apr. 05, 2014 Rise Set
Actual Time 6:42 AM PDT 7:46 PM PDT
Civil Twilight 6:11 AM PDT 8:17 PM PDT
Nautical Twilight 5:34 AM PDT 8:55 PM PDT
Astronomical Twilight 4:55 AM PDT 9:34 PM PDT
Moon 10:41 AM PDT (4/5) 1:14 AM PDT (4/5)
Length of Visible Light 14h 06m
Length of Day
13h 03m
Waxing Crescent, 35% of the Moon is Illuminated
Apr 5
Waxing Crescent
Apr 7
First Quarter
Apr 15
Full
Apr 22
Last Quarter
Apr 28
New

Hourly Weather History & Observations

Time (PDT) Temp. Windchill Dew Point Humidity Pressure Visibility Wind Dir Wind Speed Gust Speed Precip Events Conditions
12:54 AM 45.0 °F - 44.1 °F 97% 29.98 in 10.0 mi Calm Calm - 0.01 in   Overcast
1:54 AM 45.0 °F - 44.1 °F 97% 29.98 in 7.0 mi Calm Calm - N/A   Overcast
2:20 AM 45.0 °F - 44.1 °F 97% 29.97 in 10.0 mi Calm Calm - N/A   Overcast
2:41 AM 45.0 °F - 44.1 °F 97% 29.97 in 10.0 mi Calm Calm - N/A   Overcast
2:54 AM 45.0 °F - 44.1 °F 97% 29.98 in 8.0 mi Calm Calm - N/A   Overcast
3:54 AM 45.0 °F 43.5 °F 43.0 °F 93% 29.99 in 10.0 mi WSW 3.5 mph - 0.00 in   Overcast
4:11 AM 45.0 °F 43.5 °F 44.1 °F 97% 29.98 in 9.0 mi SW 3.5 mph - N/A   Overcast
4:54 AM 45.0 °F - 44.1 °F 97% 29.99 in 10.0 mi Calm Calm - N/A   Overcast
5:44 AM 45.0 °F - 44.1 °F 97% 29.99 in 10.0 mi Calm Calm - N/A   Overcast
5:54 AM 46.0 °F - 44.1 °F 93% 30.00 in 9.0 mi Calm Calm - N/A   Overcast
6:12 AM 46.0 °F - 44.1 °F 93% 29.99 in 9.0 mi Calm Calm - N/A   Overcast
6:54 AM 46.0 °F 44.8 °F 44.1 °F 93% 30.01 in 10.0 mi Variable 3.5 mph - N/A   Overcast
7:25 AM 46.0 °F 44.8 °F 44.1 °F 93% 30.01 in 10.0 mi SW 3.5 mph - N/A   Overcast
7:54 AM 46.9 °F - 44.1 °F 90% 30.01 in 10.0 mi SW 3.5 mph - 0.00 in Rain Light Rain
8:54 AM 48.0 °F - 45.0 °F 89% 30.02 in 6.0 mi SSW 8.1 mph - 0.00 in   Overcast
9:54 AM 48.9 °F - 46.0 °F 90% 30.03 in 8.0 mi SSW 6.9 mph - 0.00 in   Overcast
9:56 AM 48.9 °F - 46.0 °F 90% 30.02 in 5.0 mi SSW 9.2 mph - N/A   Overcast
10:54 AM 50.0 °F - 46.9 °F 89% 30.04 in 10.0 mi SSW 13.8 mph - N/A   Overcast
11:54 AM 51.1 °F - 46.9 °F 86% 30.05 in 10.0 mi South 11.5 mph - 0.00 in   Overcast
12:54 PM 53.1 °F - 46.0 °F 77% 30.04 in 10.0 mi South 12.7 mph - N/A   Overcast
1:54 PM 54.0 °F - 45.0 °F 72% 30.03 in 10.0 mi South 15.0 mph - N/A   Overcast
2:54 PM 52.0 °F - 48.9 °F 89% 30.01 in 6.0 mi South 13.8 mph - 0.02 in Rain Light Rain
3:54 PM 52.0 °F - 48.9 °F 89% 30.00 in 3.0 mi South 12.7 mph - 0.06 in Rain Light Rain
4:54 PM 52.0 °F - 48.9 °F 89% 30.00 in 5.0 mi South 11.5 mph - 0.08 in Rain Light Rain
5:06 PM 51.8 °F - 50.0 °F 94% 30.00 in 3.0 mi West 8.1 mph - N/A Rain Light Rain
5:49 PM 51.8 °F - 50.0 °F 94% 30.01 in 3.0 mi SW 12.7 mph - 0.11 in Rain Light Rain
5:54 PM 52.0 °F - 50.0 °F 93% 30.01 in 3.0 mi SW 9.2 mph - 0.11 in Rain Light Rain
6:54 PM 51.1 °F - 48.0 °F 89% 30.03 in 10.0 mi SW 10.4 mph 19.6 mph 0.01 in Rain Light Rain
7:54 PM 50.0 °F - 48.0 °F 93% 30.05 in 10.0 mi SSW 9.2 mph - 0.01 in Rain Light Rain
8:54 PM 48.9 °F - 48.0 °F 97% 30.06 in 10.0 mi SSW 6.9 mph - 0.00 in   Overcast
9:54 PM 48.9 °F - 46.9 °F 93% 30.08 in 10.0 mi SW 9.2 mph - 0.01 in   Overcast
10:54 PM 48.9 °F - 46.0 °F 90% 30.12 in 10.0 mi WSW 5.8 mph - 0.00 in   Overcast
11:54 PM 46.9 °F - 45.0 °F 93% 30.14 in 10.0 mi SSW 6.9 mph - N/A   Overcast